Location: Unspecified
(35.7250°N, 0.0000°E)
Time: 22:25:01
(UTC+00:00)

Vanguard 1 - All Passes

Search period start: 25 June 2019 00:00
Search period end: 05 July 2019 00:00
Orbit: 654 x 3830 km, 34.2° (Epoch: 24 June)

Date Brightness Start Highest point End Pass type
(mag) Time Alt. Az. Time Alt. Az. Time Alt. Az.
25 Jun - 02:03:05 10° WSW 02:24:11 71° SSE 02:36:10 10° E visible
25 Jun - 04:31:25 10° W 04:47:49 84° S 04:56:16 10° E daylight
25 Jun - 06:58:47 10° W 07:09:11 51° SSW 07:15:06 10° SE daylight
25 Jun - 21:40:37 10° S 21:55:48 22° SE 22:09:25 10° E visible
25 Jun - 23:58:54 10° SW 00:20:40 51° SSE 00:35:49 10° E visible
26 Jun - 02:24:41 10° WSW 02:45:38 78° SSE 02:57:15 10° E visible
26 Jun - 04:53:20 10° W 05:09:05 81° S 05:17:12 10° ESE daylight
26 Jun - 07:20:33 10° W 07:29:55 39° SW 07:35:32 10° SSE daylight
26 Jun - 21:59:00 10° S 22:16:57 29° SE 22:32:34 10° E visible
27 Jun - 00:19:35 10° SW 00:42:05 59° SSE 00:57:10 10° E visible
27 Jun - 02:46:29 10° WSW 03:07:04 82° S 03:18:19 10° E visible
27 Jun - 05:15:12 10° W 05:30:16 75° SSW 05:38:06 10° ESE daylight
27 Jun - 07:42:29 10° W 07:50:29 28° SW 07:55:39 10° SSE daylight
27 Jun - 22:18:16 10° SSW 22:38:08 37° SE 22:54:55 10° E visible
28 Jun - 00:40:38 10° SW 01:03:32 67° SSE 01:18:25 10° E visible
28 Jun - 03:08:25 10° W 03:28:32 85° S 03:39:21 10° E visible
28 Jun - 05:37:03 10° W 05:51:21 66° SSW 05:58:53 10° ESE daylight
28 Jun - 08:04:49 10° W 08:10:53 19° SW 08:15:17 10° S daylight
28 Jun - 20:23:42 10° SSE 20:34:59 16° SE 20:46:14 10° E visible
28 Jun - 22:38:07 10° SSW 22:59:22 45° SE 23:16:49 10° E visible
29 Jun - 01:01:58 10° WSW 01:25:03 74° SSE 01:39:37 10° E visible
29 Jun - 03:30:24 10° W 03:49:59 85° S 04:00:23 10° E visible
29 Jun - 05:58:53 10° W 06:12:17 55° SSW 06:19:31 10° SE daylight
29 Jun - 08:28:21 10° WSW 08:31:11 12° SW 08:33:38 10° SSW daylight
29 Jun - 20:40:43 10° S 20:55:56 23° SE 21:10:59 10° E visible
29 Jun - 22:58:25 10° SW 23:20:40 54° SSE 23:38:25 10° E visible
30 Jun - 01:23:34 10° WSW 01:46:36 80° SSE 02:00:46 10° E visible
30 Jun - 03:52:23 10° W 04:11:22 82° S 04:21:21 10° ESE visible
30 Jun - 06:20:47 10° W 06:33:01 43° SW 06:39:56 10° SE daylight
30 Jun - 20:59:15 10° S 21:16:52 30° SE 21:34:10 10° E visible
30 Jun - 23:19:06 10° SW 23:42:04 62° SSE 23:59:52 10° E visible
01 Jul - 01:45:20 10° WSW 02:08:12 84° S 02:21:55 10° E visible
01 Jul - 04:14:21 10° W 04:32:40 76° SSW 04:42:16 10° ESE visible
01 Jul - 06:42:49 10° W 06:53:35 33° SW 07:00:05 10° SSE daylight
01 Jul - 21:18:35 10° SSW 21:37:52 38° SE 21:56:36 10° E visible
01 Jul - 23:40:06 10° SW 00:03:33 69° SSE 00:21:13 10° E visible
02 Jul - 02:07:14 10° W 02:29:48 86° S 02:43:02 10° E visible
02 Jul - 04:36:18 10° W 04:53:49 68° SSW 05:03:05 10° ESE daylight
02 Jul - 07:05:11 10° W 07:13:59 24° SW 07:19:49 10° S daylight
02 Jul - 19:24:39 10° SSE 19:35:17 16° SE 19:46:41 10° E visible
02 Jul - 21:38:27 10° SSW 21:58:58 47° SE 22:18:35 10° E visible
03 Jul - 00:01:23 10° WSW 00:25:09 76° SSE 00:42:30 10° E visible
03 Jul - 02:29:12 10° W 02:51:24 85° S 03:04:09 10° E visible
03 Jul - 04:58:13 10° WNW 05:14:49 58° SSW 05:23:44 10° SE daylight
03 Jul - 07:28:19 10° W 07:34:13 16° SW 07:38:43 10° SSW daylight
03 Jul - 19:41:47 10° S 19:55:59 23° SE 20:11:33 10° E visible
03 Jul - 21:58:45 10° SW 22:20:10 55° SSE 22:40:17 10° ENE visible
04 Jul - 00:22:53 10° WSW 00:46:49 81° SSE 01:03:46 10° E visible
04 Jul - 02:51:12 10° W 03:12:55 82° S 03:25:11 10° ESE visible
04 Jul - 05:20:12 10° WNW 05:35:37 47° SW 05:44:11 10° SE daylight
04 Jul - 20:00:24 10° S 20:16:42 31° SE 20:34:51 10° E visible
04 Jul - 22:19:24 10° SW 22:41:32 63° SSE 23:01:51 10° ENE visible
